Flag for Germany Weather past 2 weeks in Worms, Rhineland-Palatinate, Germany

Now
36 °F

Passing clouds.


Feels Like: 31 °F
Forecast: 29 / 36 °F
Wind: 6 mph from Southwest

Location: Baden Wurttemberg - Neuostheim

Current Time: Jan 31, 2015 at 8:58:45 PM

Latest Report: Jan 31, 2015 at 8:20 PM


Visibility: N/A

Pressure: 29.15 "Hg

Humidity: 93%

Dew point: 34 °F

Location of WormsLocation

Historic Weather in Worms — Graph

°F

Worms temperature yesterday

Maximum temperature yesterday: 37 °F (at 5:20 AM)
Minimum temperature yesterday: 32 °F (at 7:50 PM)
Average temperature yesterday: 35 °F

Past Weeks' High & Low Weather Summary

 TemperatureHumidityPressure
High43 °F (Jan 16, 7:20 PM)100% (Jan 16, 7:50 PM)30.45 "Hg (Jan 16, 7:50 PM)
Low28 °F (Jan 19, 5:20 AM)66% (Jan 27, 12:20 PM)28.82 "Hg (Jan 30, 5:20 AM)
Average36 °F87%29.84 "Hg
* Reported Jan 16 7:20 PM — Jan 31 7:50 PM, Worms, Weather by CustomWeather, © 2014

Note: Actual official high and low records may vary slightly from our data, if they occured in-between our weather recording intervals... More about our weather records

Advertising

Worms weather history for previous 24 hours

 ConditionsComfort  
Time TempWeatherWind HumidityBarometerVisibility
7:50 PM
Jan 31
36 °FOvercast.6 mph93%29.15 "HgN/A
7:20 PM36 °FPassing clouds.7 mph93%29.12 "HgN/A
6:50 PM37 °FLow clouds.9 mph87%29.12 "HgN/A
6:20 PM36 °FPassing clouds.3 mph93%29.12 "Hg6 mi
5:50 PM37 °FLight rain. Low clouds.6 mph87%29.09 "Hg4 mi
5:20 PM37 °FMostly cloudy.5 mph87%29.09 "HgN/A
4:50 PM37 °FMore clouds than sun.8 mph81%29.09 "HgN/A
4:20 PM37 °FPartly sunny.8 mph81%29.09 "HgN/A
3:50 PM39 °FOvercast.8 mph75%29.06 "HgN/A
3:20 PM39 °FOvercast.7 mph75%29.06 "HgN/A
2:50 PM39 °FMore clouds than sun.5 mph75%29.06 "HgN/A
2:20 PM37 °FMore clouds than sun.6 mph81%29.06 "HgN/A
1:50 PM37 °FMore clouds than sun.6 mph81%29.09 "HgN/A
1:20 PM37 °FMore clouds than sun.6 mph81%29.09 "HgN/A
12:50 PM37 °FMostly cloudy.5 mph81%29.09 "HgN/A
12:20 PM37 °FCloudy.6 mph81%29.09 "HgN/A
11:50 AM37 °FMostly cloudy.5 mph81%29.09 "HgN/A
11:20 AM36 °FMostly cloudy.7 mph87%29.06 "HgN/A
10:50 AM36 °FMostly cloudy.6 mph87%29.06 "HgN/A
10:20 AM36 °FMostly cloudy.6 mph81%29.06 "HgN/A
9:50 AM36 °FMostly cloudy.5 mph81%29.06 "HgN/A
9:20 AM34 °FPartly sunny.7 mph87%29.06 "HgN/A
8:50 AM34 °FPartly sunny.7 mph87%29.03 "HgN/A
8:20 AM34 °FPartly sunny.5 mph87%29.03 "HgN/A
7:20 AM34 °FPassing clouds.6 mph87%29.03 "HgN/A
9:20 PM
Jan 30
32 °FOvercast.2 mph100%28.94 "HgN/A
8:50 PM32 °FOvercast.2 mph100%28.94 "HgN/A
8:20 PM32 °FPartly cloudy.2 mph100%28.91 "HgN/A
Weather by CustomWeather, © 2014

See weather overviewHow to use our weather pages